CZ-6A DEB

Satellite information

Favourite Embed

Satellite Type and Status

DEBRISIN ORBIT

Key statistics

Satellite CZ-6A DEB at a glance.

Uptime

275

Days in orbit

Revolutions

≈ 14.3

Per day

Orbit

LEO

Low Earth Orbit

Inclination

89.0

Latest

Satellite identification and parameters

Extended collection of information and parameters for CZ-6A DEB.

Object identification

Identified? True

Debris? True

Object name: CZ-6A DEB

International designator: 2024-140ADB

Object number (NORAD): 61835

Object ID (CCSDS): 61835

Country: PEOPLES REPUBLIC OF CHINA (PRC)

Current information (Y/N): Y

RCS size: SMALL

Orbital parameters

Period: 100.99 minutes

Inclination: 89.0057 deg

SMA: 7183.66 km

Apoapsis: 831.65 km

Periapsis: 779.401 km

RAAN: 320.2504 deg

Eccentricy: 0.0036367

Argument of periapsis: 85.5294 deg

Mean anomaly: 275.0052 deg

Mean motion: 14.25883583 rev/day

Mean motion (dot): 0.00003324 rev/day2

B* drag term: 0.0013813 1/REarth

Two-line elements (TLE)

Creation date: May 8, 2025, 3:01 a.m.

Reference frame: TEME

Reference center: EARTH

Epoch: May 7, 2025, 10:47 p.m. UTC

TLE line 0: 0 CZ-6A DEB

TLE line 1: 1 61835U 24140ADB 25127.94978888 .00003324 00000-0 13813-2 0 9992

TLE line 2: 2 61835 89.0057 320.2504 0036367 85.5294 275.0052 14.25883583 33147

Live tracking on map

Real-time ground track for satellite CZ-6A DEB.

In-orbit conjunctions

A list of the most updated potential collisions computed for object CZ-6A DEB.

Target Orbit TCA Probability of collision Miss distance Type
FENGYUN 1C DEB SSO 2025-02-27 06:08:26 0.0001843926 234.0 (m) DEBRIS
COSMOS 374 DEB MEO 2025-02-25 01:06:37 0.0001009409 754.0 (m) DEBRIS
CZ-6A DEB LEO 2025-02-21 15:28:57 0.0001757864 844.0 (m) DEBRIS
FENGYUN 1C DEB SSO 2025-01-03 19:50:42 0.0001101207 604.0 (m) DEBRIS
FENGYUN 1C DEB SSO 2024-11-13 18:01:56 0.0004256033 568.0 (m) DEBRIS

Associated space launch

18 Low Earth Orbit communication satellites with Ku, Q and V band payloads for the G60 constellation operated by Shanghai Spacecom Satellite Technology (SSST) with funding backed by the Shanghai local government. Initial constellation will consist of 1296 satellites by 2027 with long term plans to expand it to 12000 satellites.

CZ-6A DEB was lifted into orbit during the mission ‘Long March 6A | G60 Polar Group 01’, on board a Long March 6A space rocket.

The launch took place on Aug. 6, 2024, 6:42 a.m. from Launch Complex 9A.

For more information about the launch, click the button.

Launch to space Long March 6A | G60 Polar Group 01
Long March 6A | G60 Polar Group 01

Agency: N/A

Status: Launch Successful

Launch date: Aug. 6, 2024, 6:42 a.m. UTC

Rocket: Long March 6A

Launch pad: Launch Complex 9A

Location: Taiyuan Satellite Launch Center, People's Republic of China

...

Latest news about this satellite

News about space launch
Brightness of first Chinese broadband constellation satellites alarms astronomers

The first satellites of a Chinese broadband constellation are significantly brighter than those of Western systems, posing a new challenge for astronomers.

News about space launch
Chinese rocket stage breaks up into cloud of more than 700 pieces of space debris

HELSINKI — A Chinese Long March 6A rocket’s upper stage has fragmented into a cloud of over 700 pieces of space debris, adding to concerns about long-term orbital safety. China […]

News about space launch
China's Thousand Sails Megaconstellation Kicks Off with Dangerous Debris Field

China's Thousand Sails Megaconstellation Kicks Off with Dangerous Debris Field


Newsletter sign-up

Weekly statistics, charts and insights to help you stay on top of the space industry.